Location: Casteau
(50.5142°N, 4.0161°E)
Time: 09:46:46
(UTC+00:00)

SR - All Passes

Search period start: 31 July 2021 00:00
Search period end: 10 August 2021 00:00
Orbit: 577 x 877 km, 66.7° (Epoch: 30 July)

Date Brightness Start Highest point End Pass type
(mag) Time Alt. Az. Time Alt. Az. Time Alt. Az.
31 Jul - 04:40:24 10° SE 04:43:30 15° ESE 04:46:33 10° ENE daylight
31 Jul - 06:19:02 10° SSW 06:24:49 74° ESE 06:30:16 10° NE daylight
31 Jul - 08:02:22 10° W 08:07:23 31° NW 08:12:06 10° NNE daylight
31 Jul - 09:48:07 10° NW 09:51:06 15° NNW 09:53:59 10° NNE daylight
31 Jul - 11:32:24 10° NNW 11:35:20 15° NNE 11:38:09 10° NE daylight
31 Jul - 13:14:20 10° NNW 13:18:57 35° NE 13:23:12 10° ESE daylight
31 Jul - 14:56:30 10° NW 15:01:11 47° WSW 15:05:28 10° SSE daylight
01 Aug - 05:29:40 10° S 05:35:06 43° ESE 05:40:16 10° NE daylight
01 Aug - 07:11:44 10° WSW 07:17:14 46° NW 07:22:24 10° NNE daylight
01 Aug - 08:56:55 10° WNW 09:00:35 18° NNW 09:04:05 10° NNE daylight
01 Aug - 10:42:15 10° NNW 10:44:47 13° N 10:47:12 10° NNE daylight
01 Aug - 12:24:38 10° NNW 12:28:43 24° NNE 12:32:32 10° E daylight
01 Aug - 14:06:31 10° NW 14:11:28 88° SW 14:15:59 10° SE daylight
01 Aug - 15:50:19 10° WNW 15:52:38 14° WSW 15:54:53 10° SW daylight
02 Aug - 04:40:56 10° SSE 04:45:33 25° ESE 04:49:58 10° ENE daylight
02 Aug - 06:21:29 10° SW 06:27:15 73° NW 06:32:40 10° NE daylight
02 Aug - 08:05:47 10° W 08:10:10 23° NNW 08:14:21 10° NNE daylight
02 Aug - 09:51:38 10° NNW 09:54:10 13° N 09:56:37 10° NNE daylight
02 Aug - 11:34:52 10° NNW 11:38:20 18° NNE 11:41:35 10° ENE daylight
02 Aug - 13:16:41 10° NNW 13:21:34 53° NE 13:26:01 10° SE daylight
02 Aug - 14:59:18 10° NW 15:03:17 26° WSW 15:07:00 10° SSW daylight
03 Aug - 03:53:19 10° SE 03:56:08 14° ESE 03:58:53 10° ENE daylight
03 Aug - 05:31:39 10° SSW 05:37:24 70° ESE 05:42:49 10° NE daylight
03 Aug - 07:14:52 10° W 07:19:55 32° NW 07:24:40 10° NNE daylight
03 Aug - 09:00:36 10° NW 09:03:35 15° NNW 09:06:29 10° NNE daylight
03 Aug - 10:45:00 10° NNW 10:47:50 15° NNE 10:50:32 10° NE daylight
03 Aug - 12:26:57 10° NNW 12:31:29 33° NE 12:35:39 10° ESE daylight
03 Aug - 14:09:04 10° NW 14:13:45 50° WSW 14:18:04 10° SSE daylight
04 Aug - 04:42:21 10° S 04:47:42 41° ESE 04:52:48 10° NE daylight
04 Aug - 06:24:16 10° WSW 06:29:48 48° NW 06:34:58 10° NNE daylight
04 Aug - 08:09:24 10° WNW 08:13:05 18° NNW 08:16:38 10° NNE daylight
04 Aug - 09:54:49 10° NNW 09:57:16 13° N 09:59:36 10° NNE daylight
04 Aug - 11:37:14 10° NNW 11:41:14 23° NNE 11:44:57 10° E daylight
04 Aug - 13:19:06 10° NW 13:24:01 87° NE 13:28:31 10° SE daylight
04 Aug - 15:02:42 10° WNW 15:05:15 15° WSW 15:07:41 10° SW daylight
05 Aug - 03:53:42 10° SSE 03:58:09 24° ESE 04:02:27 10° ENE daylight
05 Aug - 05:34:04 10° SW 05:39:49 76° NW 05:45:13 10° NE daylight
05 Aug - 07:18:16 10° W 07:22:42 24° NNW 07:26:54 10° NNE daylight
05 Aug - 09:04:09 10° NW 09:06:39 13° N 09:09:05 10° NNE daylight
05 Aug - 10:47:29 10° NNW 10:50:49 17° NNE 10:53:59 10° ENE daylight
05 Aug - 12:29:17 10° NNW 12:34:06 50° NE 12:38:30 10° ESE daylight
05 Aug - 14:11:50 10° NW 14:15:52 28° WSW 14:19:39 10° S daylight
06 Aug - 03:06:19 10° SE 03:08:46 13° ESE 03:11:10 10° ENE visible
06 Aug - 04:44:17 10° SSW 04:49:59 66° ESE 04:55:21 10° NE daylight
06 Aug - 06:27:23 10° WSW 06:32:27 33° NW 06:37:13 10° NNE daylight
06 Aug - 08:13:04 10° NW 08:16:05 15° NNW 08:18:59 10° NNE daylight
06 Aug - 09:57:36 10° NNW 10:00:18 14° NNE 10:02:56 10° NE daylight
06 Aug - 11:39:33 10° NNW 11:44:00 31° NE 11:48:06 10° E daylight
06 Aug - 13:21:37 10° NW 13:26:19 53° WSW 13:30:39 10° SSE daylight
07 Aug - 03:55:01 10° S 04:00:18 38° ESE 04:05:19 10° NE daylight
07 Aug - 05:36:48 10° WSW 05:42:21 50° NW 05:47:31 10° NNE daylight
07 Aug - 07:21:51 10° WNW 07:25:35 18° NNW 07:29:10 10° NNE daylight
07 Aug - 09:07:23 10° NNW 09:09:44 13° N 09:12:01 10° NNE daylight
07 Aug - 10:49:50 10° NNW 10:53:43 22° NNE 10:57:22 10° E daylight
07 Aug - 12:31:40 10° NW 12:36:35 83° NE 12:41:03 10° SE daylight
07 Aug - 14:15:07 10° WNW 14:17:51 15° WSW 14:20:28 10° SW daylight
08 Aug - 03:06:28 10° SSE 03:10:46 22° ESE 03:14:54 10° ENE visible
08 Aug - 04:46:38 10° SW 04:52:23 80° NW 04:57:45 10° NE daylight
08 Aug - 06:30:45 10° W 06:35:13 24° NNW 06:39:27 10° NNE daylight
08 Aug - 08:16:39 10° NW 08:19:08 13° N 08:21:32 10° NNE daylight
08 Aug - 10:00:05 10° NNW 10:03:18 17° NNE 10:06:23 10° ENE daylight
08 Aug - 11:41:52 10° NNW 11:46:38 47° NE 11:50:59 10° ESE daylight
08 Aug - 13:24:20 10° NW 13:28:27 30° WSW 13:32:18 10° S daylight
09 Aug - 02:19:21 10° SE 02:21:23 12° ESE 02:23:23 10° E visible
09 Aug - 03:56:55 10° SSW 04:02:34 62° ESE 04:07:53 10° NE daylight
09 Aug - 05:39:53 10° WSW 05:44:59 34° NW 05:49:46 10° NNE daylight
09 Aug - 07:25:32 10° NW 07:28:34 15° NNW 07:31:30 10° NNE daylight
09 Aug - 09:10:11 10° NNW 09:12:47 14° N 09:15:19 10° NE daylight
09 Aug - 10:52:09 10° NNW 10:56:30 30° NE 11:00:32 10° E daylight
09 Aug - 12:34:10 10° NW 12:38:53 57° WSW 12:43:12 10° SSE daylight
